Date,TemperatureHighF,TemperatureAvgF,TemperatureLowF,DewpointHighF,DewpointAvgF,DewpointLowF,HumidityHigh,HumidityAvg,HumidityLow,PressureMaxIn,PressureMinIn,WindSpeedMaxMPH,WindSpeedAvgMPH,GustSpeedMaxMPH,PrecipitationSumIn
2013-10-1,62,54,45,-100,-100,-100,0,0,100,0.00,40.00,0,-999,0,0.00
2013-10-2,75,64,46,-100,-100,-100,0,0,100,0.00,40.00,0,-999,0,0.00
2013-10-3,72,62,47,-100,-100,-100,0,0,100,0.00,40.00,0,-999,0,0.00
2013-10-4,66,54,40,-100,-100,-100,0,0,100,0.00,40.00,0,-999,0,0.00
2013-10-5,63,57,53,-100,-100,-100,0,0,100,0.00,40.00,0,-999,0,0.00
2013-10-6,54,51,47,-100,-100,-100,0,0,100,0.00,40.00,0,-999,0,0.07
2013-10-7,67,54,48,-100,-100,-100,0,0,100,0.00,40.00,0,-999,0,0.61
2013-10-8,59,52,37,-100,-100,-100,0,0,100,0.00,40.00,0,-999,0,0.42
2013-10-9,60,44,30,-100,-100,-100,0,0,100,0.00,40.00,0,-999,0,0.00
2013-10-10,62,48,34,-100,-100,-100,0,0,100,0.00,40.00,0,-999,0,0.00
2013-10-11,67,51,42,-100,-100,-100,0,0,100,0.00,40.00,0,-999,0,0.00
2013-10-12,57,54,42,-100,-100,-100,0,0,100,0.00,40.00,0,-999,0,0.00
2013-10-13,55,50,39,-100,-100,-100,0,0,100,0.00,40.00,0,-999,0,0.00
2013-10-14,64,53,41,-100,-100,-100,0,0,100,0.00,40.00,0,-999,0,0.00
2013-10-15,63,56,50,-100,-100,-100,0,0,100,0.00,40.00,0,-999,0,0.00
2013-10-16,61,55,49,-100,-100,-100,0,0,100,0.00,40.00,0,-999,0,0.00
2013-10-17,69,56,47,-100,-100,-100,0,0,100,0.00,40.00,0,-999,0,0.00
2013-10-18,63,55,46,-100,-100,-100,0,0,100,0.00,40.00,0,-999,0,0.32
2013-10-19,62,57,52,-100,-100,-100,0,0,100,0.00,40.00,0,-999,0,0.00
2013-10-20,59,53,44,-100,-100,-100,0,0,100,0.00,40.00,0,-999,0,0.00
2013-10-21,60,51,31,-100,-100,-100,0,0,100,0.00,40.00,0,-999,0,0.00
2013-10-22,53,46,38,-100,-100,-100,0,0,100,0.00,40.00,0,-999,0,0.04
2013-10-23,52,41,33,-100,-100,-100,0,0,100,0.00,40.00,0,-999,0,0.03
2013-10-24,48,43,35,-100,-100,-100,0,0,100,0.00,40.00,0,-999,0,0.00
2013-10-25,43,36,31,-100,-100,-100,0,0,100,0.00,40.00,0,-999,0,0.00
2013-10-26,47,38,27,-100,-100,-100,0,0,100,0.00,40.00,0,-999,0,0.00
2013-10-27,52,42,31,-100,-100,-100,0,0,100,0.00,40.00,0,-999,0,0.00
2013-10-28,53,39,28,-100,-100,-100,0,0,100,0.00,40.00,0,-999,0,0.00
2013-10-29,44,30,20,-100,-100,-100,0,0,100,0.00,40.00,0,-999,0,0.00
2013-10-30,47,34,25,-100,-100,-100,0,0,100,0.00,40.00,0,-999,0,0.00
2013-10-31,52,37,28,-100,-100,-100,0,0,100,0.00,40.00,0,-999,0,0.26